Location: Unspecified
(0.0000°N, 0.0000°E)
Time: 19:26:07
(UTC+00:00)

Vanguard 1 - Pass Details

Date: 12 December 2017
Orbit: 650 x 3833 km, 34.3° (Epoch: 17 June)

Event Time Altitude Azimuth Distance (km) Brightness Sun altitude
Rises 08:00:41 0° 250° (WSW) 7,622 14.2 28.9°
Reaches altitude 10° 08:06:00 10° 256° (WSW) 6,796 14.0 30.1°
Maximum altitude 08:27:53 46° 323° (NW) 4,374 13.3 35.0°
Drops below altitude 10° 08:45:27 10° 33° (NNE) 5,507 14.0 38.8°
Sets 08:49:18 0° 39° (NE) 6,142 14.2 39.6°
